TimePST,TemperatureF,Dew PointF,Humidity,Sea Level PressureIn,VisibilityMPH,Wind Direction,Wind SpeedMPH,Gust SpeedMPH,PrecipitationIn,Events,Conditions,WindDirDegrees,DateUTC
12:56 AM,32.0,28.0,85,29.92,10.0,East,6.9,-,N/A,,Clear,90,2013-03-05 08:56:00
1:56 AM,30.9,27.0,85,29.92,10.0,Calm,Calm,-,N/A,,Clear,0,2013-03-05 09:56:00
2:56 AM,28.0,25.0,88,29.90,10.0,Calm,Calm,-,N/A,,Clear,0,2013-03-05 10:56:00
3:56 AM,28.0,25.0,88,29.90,10.0,Calm,Calm,-,N/A,,Clear,0,2013-03-05 11:56:00
4:56 AM,26.1,23.0,88,29.89,9.0,SSE,4.6,-,N/A,,Clear,150,2013-03-05 12:56:00
5:56 AM,25.0,23.0,92,29.91,10.0,NW,5.8,-,N/A,,Clear,310,2013-03-05 13:56:00
6:24 AM,24.8,21.2,86,29.98,10.0,Calm,Calm,-,N/A,,Mostly Cloudy,0,2013-03-05 14:24:00
6:56 AM,25.0,23.0,92,29.90,10.0,Calm,Calm,-,N/A,,Mostly Cloudy,0,2013-03-05 14:56:00
7:56 AM,36.0,32.0,86,29.89,10.0,Calm,Calm,-,N/A,,Mostly Cloudy,0,2013-03-05 15:56:00
8:56 AM,42.1,32.0,67,29.88,10.0,NW,3.5,-,N/A,,Mostly Cloudy,310,2013-03-05 16:56:00
9:56 AM,48.9,30.9,50,29.88,10.0,Calm,Calm,-,N/A,,Mostly Cloudy,0,2013-03-05 17:56:00
10:56 AM,55.0,28.9,37,29.85,10.0,Calm,Calm,-,N/A,,Mostly Cloudy,0,2013-03-05 18:56:00
11:56 AM,60.1,28.0,30,29.81,10.0,Variable,4.6,-,N/A,,Mostly Cloudy,0,2013-03-05 19:56:00
12:56 PM,61.0,26.1,26,29.77,10.0,Variable,4.6,-,N/A,,Mostly Cloudy,0,2013-03-05 20:56:00
1:56 PM,66.0,23.0,20,29.73,10.0,South,6.9,-,N/A,,Mostly Cloudy,180,2013-03-05 21:56:00
2:56 PM,68.0,21.0,17,29.69,10.0,SSW,15.0,21.9,N/A,,Mostly Cloudy,200,2013-03-05 22:56:00
3:56 PM,69.1,10.0,10,29.67,10.0,SW,20.7,-,N/A,,Overcast,230,2013-03-05 23:56:00
4:56 PM,64.9,12.0,13,29.66,10.0,SW,18.4,26.5,N/A,,Mostly Cloudy,230,2013-03-06 00:56:00
5:56 PM,59.0,21.9,24,29.66,10.0,West,15.0,-,N/A,,Mostly Cloudy,260,2013-03-06 01:56:00
6:56 PM,53.1,24.1,32,29.68,10.0,West,6.9,-,N/A,,Scattered Clouds,280,2013-03-06 02:56:00
7:56 PM,51.1,26.1,38,29.68,10.0,Calm,Calm,-,N/A,,Scattered Clouds,0,2013-03-06 03:56:00
8:56 PM,48.9,26.1,41,29.68,10.0,NE,3.5,-,N/A,,Partly Cloudy,50,2013-03-06 04:56:00
9:56 PM,43.0,26.1,51,29.69,10.0,East,8.1,-,N/A,,Partly Cloudy,80,2013-03-06 05:56:00
10:56 PM,46.0,25.0,44,29.68,10.0,ESE,4.6,-,N/A,,Clear,120,2013-03-06 06:56:00
11:56 PM,39.9,25.0,55,29.67,10.0,SSE,10.4,-,N/A,,Clear,150,2013-03-06 07:56:00